Raton, NM

1:59 AM MDT on April 26, 2018 (GMT -0600)
Raton Municipal-Crews

Weather History for KRTN - February, 2013

Change the Weather History Date:

Saturday, February 2, 2013

  Actual Average (KTAD) Record (KTAD)
Temperature  
Mean Temperature 34 °F -  
Max Temperature 50 °F 46 °F 66 °F (1971)
Min Temperature 18 °F 16 °F -19 °F (2011)
Degree Days  
Heating Degree Days 31    
Moisture  
Dew Point 14 °F    
Average Humidity 49    
Maximum Humidity 72    
Minimum Humidity 24    
Precipitation  
Precipitation 0.00 in - - ()
Sea Level Pressure  
Sea Level Pressure 30.30 in    
Wind  
Wind Speed 7 mph (North)    
Max Wind Speed 12 mph    
Max Gust Speed -    
Visibility 10 miles    
Events      
Averages and records for this station are not official NWS values.
T = Trace of Precipitation, MM = Missing Value Source: NWS Daily Summary

Daily Weather History Graph

Daily Weather History Graph

Search for Another Location

Airport or City:

Astronomy

Feb. 02, 2013 Rise Set
Actual Time 6:58 AM MST 5:25 PM MST
Civil Twilight 6:31 AM MST 5:52 PM MST
Nautical Twilight 6:00 AM MST 6:23 PM MST
Astronomical Twilight 5:30 AM MST 6:53 PM MST
Moon No Moon Rise 10:23 AM MST (2/2)
Length of Visible Light 11h 20m
Length of Day
10h 26m
Waning Gibbous, 59% of the Moon is Illuminated
Feb 2
Waning Gibbous
Feb 3
Last Quarter
Feb 10
New
Feb 17
First Quarter
Feb 25
Full

Hourly Weather History & Observations

Time (MST) Temp. Windchill Dew Point Humidity Pressure Visibility Wind Dir Wind Speed Gust Speed Precip Events Conditions
12:53 AM 27.0 °F 18.0 °F 10.9 °F 51% 30.16 in 10.0 mi NNE 9.2 mph - N/A   Clear
1:53 AM 25.0 °F 19.3 °F 10.9 °F 55% 30.18 in 10.0 mi North 4.6 mph - N/A   Clear
2:53 AM 25.0 °F 20.7 °F 10.9 °F 55% 30.19 in 10.0 mi North 3.5 mph - N/A   Clear
3:53 AM 19.9 °F 13.4 °F 10.0 °F 65% 30.21 in 10.0 mi NE 4.6 mph - N/A   Clear
4:53 AM 18.0 °F 6.9 °F 10.0 °F 71% 30.25 in 10.0 mi NE 9.2 mph - N/A   Clear
5:53 AM 19.9 °F 9.3 °F 10.0 °F 65% 30.30 in 10.0 mi NNE 9.2 mph - N/A   Clear
6:53 AM 24.1 °F 16.0 °F 10.9 °F 57% 30.33 in 10.0 mi NNE 6.9 mph - N/A   Clear
7:53 AM 27.0 °F 20.5 °F 12.0 °F 53% 30.35 in 10.0 mi ENE 5.8 mph - N/A   Clear
8:53 AM 30.0 °F 25.2 °F 14.0 °F 51% 30.36 in 10.0 mi NE 4.6 mph - N/A   Clear
9:53 AM 36.0 °F 32.1 °F 12.9 °F 39% 30.34 in 10.0 mi SSW 4.6 mph - N/A   Clear
10:53 AM 39.9 °F 35.1 °F 15.1 °F 36% 30.36 in 10.0 mi SSW 6.9 mph - N/A   Clear
11:53 AM 41.0 °F 34.3 °F 16.0 °F 36% 30.33 in 10.0 mi SW 11.5 mph - N/A   Clear
12:53 PM 44.1 °F 40.8 °F 16.0 °F 32% 30.31 in 10.0 mi SW 5.8 mph - N/A   Clear
1:53 PM 48.9 °F - 14.0 °F 25% 30.28 in 10.0 mi SSW 8.1 mph - N/A   Clear
2:53 PM 50.0 °F - 14.0 °F 24% 30.26 in 10.0 mi SSW 6.9 mph - N/A   Clear
3:53 PM 50.0 °F - 16.0 °F 26% 30.28 in 10.0 mi South 8.1 mph - N/A   Clear
4:53 PM 45.0 °F 41.2 °F 16.0 °F 31% 30.31 in 10.0 mi South 6.9 mph - N/A   Clear
5:53 PM 39.0 °F 35.7 °F 15.1 °F 38% 30.34 in 10.0 mi SW 4.6 mph - N/A   Clear
6:53 PM 32.0 °F 27.5 °F 15.1 °F 50% 30.38 in 10.0 mi NW 4.6 mph - N/A   Clear
7:53 PM 33.1 °F 26.9 °F 16.0 °F 50% 30.35 in 10.0 mi NNW 6.9 mph - N/A   Clear
8:53 PM 30.0 °F 23.2 °F 16.0 °F 56% 30.35 in 10.0 mi North 6.9 mph - N/A   Clear
9:53 PM 26.1 °F 18.4 °F 15.1 °F 63% 30.34 in 10.0 mi NE 6.9 mph - N/A   Clear
10:53 PM 23.0 °F 17.0 °F 14.0 °F 68% 30.33 in 10.0 mi North 4.6 mph - N/A   Clear
11:53 PM 21.9 °F 13.4 °F 14.0 °F 72% 30.31 in 10.0 mi NNW 6.9 mph - N/A   Clear